[[{"header":{"parameterUnit":"m.s-1","parameterCategory":1,"la1":30.2991,"la2":30.254,"lo1":-89.0895,"lo2":-89.0444,"dy":0.0017,"dx":0.0017,"nx":28,"ny":28,"refTime":"2024-08-25T21:00:00:Z","depth":0,"parameterNumber":2,"parameterNumberName":"U-component_of_WINDS"},"data":[0,0,0,0,0,0,0,0,0,0,0,0,0,0,0,0,0,0,0,0,0,0,0,0,0,0,0,0,0,0,0,0,0,0,0,0,0,0,0,0,0,0,0,0,0,0,0,0,0,0,0,0,0,0,0,0,0,0,-1.4539,-1.4538,0,-1.4497,-1.4496,-1.4496,-1.442,-1.4419,-1.4417,-1.4416,-1.4374,-1.4374,-1.4375,0,0,0,0,0,0,0,0,0,0,0,0,0,-1.4555,-1.4555,-1.4539,-1.4538,-1.4538,-1.4497,-1.4496,-1.4496,-1.4421,-1.4419,-1.4417,-1.4415,-1.4374,-1.4374,-1.4375,0,0,0,0,0,0,0,0,0,0,0,0,0,-1.4534,-1.4555,-1.4539,-1.4495,-1.4491,-1.4497,-1.4496,-1.4496,-1.4421,-1.4419,-1.4417,-1.4415,-1.4374,-1.4374,-1.4375,-1.442,0,0,-1.4376,-1.4376,0,0,0,0,0,0,0,0,-1.4535,-1.4533,-1.4502,-1.4498,-1.4493,-1.4462,-1.4487,-1.4471,-1.4421,-1.4447,-1.4416,-1.4413,-1.4405,-1.4403,-1.44,-1.4418,-1.4417,-1.4376,-1.4376,-1.4376,-1.4376,0,0,0,0,0,0,0,-1.4537,-1.4535,-1.4522,-1.4502,-1.4496,-1.4478,-1.4473,-1.4483,-1.4439,-1.4445,-1.4439,-1.4436,-1.4402,-1.44,-1.4398,-1.4416,-1.4376,-1.4376,-1.4376,-1.4376,-1.4472,-1.4474,0,0,0,0,0,0,-1.4544,-1.4536,-1.4523,-1.4521,-1.4509,-1.448,-1.4474,-1.4474,-1.4439,-1.4431,-1.4437,-1.4432,-1.44,-1.4398,-1.4396,-1.4448,-1.4376,-1.4376,-1.4377,-1.4469,-1.4472,-1.4475,0,0,0,0,0,0,-1.4545,-1.4544,-1.4525,-1.4527,-1.4523,-1.4482,-1.4483,-1.4474,-1.4471,-1.4433,-1.4425,-1.4443,-1.4398,-1.4396,-1.4415,-1.4446,-1.4377,-1.4377,-1.4467,-1.447,-1.4474,-1.4552,0,0,0,0,0,0,-1.4546,-1.4545,-1.4561,-1.4528,-1.4524,-1.4544,-1.4484,-1.4475,-1.4472,-1.4465,-1.4436,-1.4429,-1.4396,-1.4415,-1.4416,-1.4445,-1.4377,-1.4464,-1.4468,-1.4472,-1.4547,-1.4558,-1.4568,0,0,0,0,0,-1.4547,-1.4585,-1.4562,-1.4561,-1.4543,-1.4546,-1.4544,-1.4505,-1.4475,-1.4491,-1.4467,-1.443,-1.4443,-1.4418,-1.4418,-1.4448,-1.4462,-1.4467,-1.4472,-1.4542,-1.4556,-1.4567,0,0,0,0,0,0,-1.4622,-1.458,-1.4554,-1.4583,-1.4569,-1.4533,-1.4553,-1.4521,-1.4515,-1.4509,-1.4462,-1.4456,-1.4482,-1.4467,-1.444,-1.4491,-1.4446,-1.4452,-1.45,-1.4512,-1.4523,-1.4526,-1.4378,0,0,0,0,0,-1.4642,-1.4648,-1.461,-1.4639,-1.4634,-1.4595,-1.4595,-1.4567,-1.455,-1.4544,-1.4521,-1.4507,-1.4508,-1.4509,-1.4508,-1.4545,-1.4538,-1.4565,-1.4576,-1.4585,-1.459,-1.4609,-1.4621,-1.4492,-1.4492,-1.4492,0,0,-1.4684,-1.4661,-1.4667,-1.4654,-1.464,-1.4647,-1.459,-1.46,-1.4606,-1.4546,-1.4562,-1.4545,-1.4527,-1.4555,-1.4567,-1.4543,-1.4624,-1.4591,-1.4598,-1.4599,-1.4616,-1.4628,-1.4639,-1.4495,-1.4495,-1.4494,0,0,-1.4763,-1.4746,-1.4769,-1.4756,-1.4735,-1.471,-1.4715,-1.4685,-1.4672,-1.4688,-1.4643,-1.4649,-1.4652,-1.464,-1.4635,-1.4712,-1.4678,-1.4713,-1.4768,-1.4787,-1.4797,-1.4806,-1.4834,-1.4845,-1.4719,-1.4719,-1.4719,0,-1.4817,-1.4826,-1.4784,-1.4798,-1.4794,-1.474,-1.4763,-1.4753,-1.4733,-1.4732,-1.4706,-1.4709,-1.4692,-1.4718,-1.4737,-1.4734,-1.474,-1.4716,-1.4799,-1.4808,-1.4815,-1.4842,-1.4852,-1.4723,-1.4723,-1.4722,-1.4722,0,-1.4894,-1.4901,-1.4922,-1.4904,-1.4903,-1.4921,-1.4883,-1.4886,-1.4859,-1.4836,-1.4854,-1.4833,-1.4827,-1.4831,-1.4804,-1.4854,-1.484,-1.4808,-1.4762,-1.4833,-1.4857,-1.4866,-1.473,-1.4728,-1.4727,-1.4726,0,0,-1.5018,-1.4979,-1.4987,-1.4979,-1.4953,-1.4958,-1.4975,-1.4969,-1.4973,-1.4962,-1.4975,-1.4979,-1.4949,-1.4943,-1.4915,-1.4932,-1.4996,-1.4897,-1.4896,-1.4917,-1.505,-1.5075,-1.5087,-1.4973,-1.4975,-1.4976,-1.5052,0,-1.5092,-1.5117,-1.5081,-1.5115,-1.5121,-1.5071,-1.5086,-1.5072,-1.5052,-1.5055,-1.5033,-1.5037,-1.4997,-1.4993,-1.5008,-1.4985,-1.5022,-1.4979,-1.4985,-1.4986,-1.4992,-1.5099,-1.5125,-1.5197,-1.5061,-1.5062,-1.5063,0,-1.5181,-1.5174,-1.5209,-1.5182,-1.5183,-1.5197,-1.5189,-1.5193,-1.5177,-1.5161,-1.5156,-1.5122,-1.5137,-1.5094,-1.5114,-1.5086,-1.5087,-1.5076,-1.5078,-1.5077,-1.5029,-1.5102,-1.5219,-1.523,-1.5077,-1.5076,-1.5075,0,-1.5269,-1.5269,-1.529,-1.5284,-1.5253,-1.5264,-1.5252,-1.5234,-1.5233,-1.5227,-1.5226,-1.5222,-1.5219,-1.5217,-1.5184,-1.5155,-1.5209,-1.5162,-1.5197,-1.5198,-1.5211,-1.521,-1.533,-1.5211,-1.5211,-1.5211,-1.5211,0,-1.5356,-1.5379,-1.5329,-1.5342,-1.5367,-1.5326,-1.5352,-1.5334,-1.5319,-1.5328,-1.5285,-1.5294,-1.525,-1.5255,-1.5229,-1.5251,-1.525,-1.5239,-1.5231,-1.5242,-1.5244,-1.5242,-1.5237,-1.5214,-1.5213,-1.5212,-1.5212,0,-1.5458,-1.5426,-1.5445,-1.5415,-1.5407,-1.5427,-1.5401,-1.5412,-1.539,-1.5402,-1.5403,-1.5368,-1.5372,-1.5338,-1.5336,-1.5319,-1.5353,-1.5337,-1.5359,-1.5354,-1.5391,-1.5388,-1.5514,-1.5529,-1.54,-1.5401,-1.5402,0,-1.5515,-1.5532,-1.5503,-1.5506,-1.5496,-1.5502,-1.5501,-1.5462,-1.5463,-1.5446,-1.546,-1.546,-1.5459,-1.5468,-1.5443,-1.5441,-1.5425,-1.5469,-1.5424,-1.5436,-1.5426,-1.5426,-1.5428,-1.5479,-1.548,-1.5482,-1.5483,0,-1.5621,-1.5604,-1.5604,-1.5599,-1.56,-1.5594,-1.5585,-1.5591,-1.5548,-1.5552,-1.5555,-1.5554,-1.5552,-1.5554,-1.5548,-1.5536,-1.5503,-1.5497,-1.5505,-1.5517,-1.5529,-1.5524,-1.5385,-1.5494,-1.5493,-1.5492,-1.5492,-1.5491,-1.5702,-1.5715,-1.5698,-1.57,-1.5689,-1.5683,-1.5692,-1.5671,-1.5673,-1.5668,-1.5645,-1.5654,-1.5638,-1.5626,-1.5618,-1.5624,-1.5603,-1.5615,-1.5618,-1.5621,-1.5628,-1.5528,-1.5623,-1.5623,-1.5622,-1.5622,-1.5622,0,-1.5806,-1.5792,-1.5795,-1.5784,-1.5787,-1.5755,-1.5744,-1.5748,-1.5756,-1.5745,-1.5744,-1.5749,-1.5751,-1.5726,-1.5725,-1.5735,-1.572,-1.5736,-1.5735,-1.5733,-1.5647,-1.564,-1.5748,-1.5748,-1.5748,-1.5748,-1.5748,-1.5748,-1.586,-1.5881,-1.5863,-1.5878,-1.5864,-1.5872,-1.5868,-1.5863,-1.5853,-1.5861,-1.5862,-1.5846,-1.5829,-1.5827,-1.5827,-1.582,-1.5822,-1.5843,-1.5831,-1.5751,-1.5739,-1.5727,-1.5721,-1.5844,-1.5844,-1.5917,-1.5917,-1.5918]},{"header":{"parameterUnit":"m.s-1","parameterCategory":1,"la1":30.2991,"la2":30.254,"lo1":-89.0895,"lo2":-89.0444,"dy":0.0017,"dx":0.0017,"nx":28,"ny":28,"refTime":"2024-08-25T21:00:00:Z","depth":0,"parameterNumber":3,"parameterNumberName":"V-component_of_WINDS"},"data":[0,0,0,0,0,0,0,0,0,0,0,0,0,0,0,0,0,0,0,0,0,0,0,0,0,0,0,0,0,0,0,0,0,0,0,0,0,0,0,0,0,0,0,0,0,0,0,0,0,0,0,0,0,0,0,0,0,0,2.3869,2.3869,0,2.3864,2.3864,2.3864,2.3872,2.3872,2.3873,2.3873,2.3865,2.3865,2.3864,0,0,0,0,0,0,0,0,0,0,0,0,0,2.3883,2.3882,2.3869,2.3869,2.3869,2.3864,2.3864,2.3864,2.3872,2.3872,2.3873,2.3873,2.3865,2.3865,2.3864,0,0,0,0,0,0,0,0,0,0,0,0,0,2.3877,2.3882,2.3869,2.3872,2.3873,2.3864,2.3864,2.3864,2.3872,2.3872,2.3873,2.3873,2.3866,2.3865,2.3864,2.3852,0,0,2.3862,2.3862,0,0,0,0,0,0,0,0,2.3877,2.3877,2.3872,2.3872,2.3872,2.3869,2.3866,2.386,2.3872,2.3872,2.3873,2.3873,2.3866,2.3865,2.3864,2.3851,2.3851,2.3862,2.3862,2.3861,2.3861,0,0,0,0,0,0,0,2.3878,2.3877,2.3867,2.3872,2.3872,2.3873,2.3873,2.3865,2.3867,2.3872,2.3873,2.3872,2.3866,2.3864,2.3863,2.3851,2.3862,2.3862,2.3861,2.3861,2.3828,2.3828,0,0,0,0,0,0,2.3878,2.3877,2.3867,2.3867,2.3876,2.3873,2.3872,2.387,2.3867,2.3867,2.3872,2.3873,2.3865,2.3864,2.3863,2.3848,2.3861,2.3861,2.386,2.3829,2.3828,2.3828,0,0,0,0,0,0,2.3878,2.3877,2.3867,2.3872,2.3871,2.3872,2.3869,2.3869,2.3867,2.3867,2.3867,2.387,2.3865,2.3864,2.3855,2.3848,2.386,2.386,2.3829,2.3828,2.3828,2.3818,0,0,0,0,0,0,2.3879,2.3877,2.3873,2.3872,2.3871,2.3859,2.3869,2.3869,2.3866,2.3867,2.3865,2.3864,2.3866,2.3856,2.3854,2.3847,2.3859,2.383,2.3829,2.3828,2.3819,2.3817,2.3816,0,0,0,0,0,2.3879,2.387,2.3873,2.3871,2.3865,2.3859,2.3858,2.3861,2.3866,2.3861,2.3861,2.3864,2.3849,2.3855,2.3853,2.3846,2.383,2.3829,2.3828,2.382,2.3817,2.3816,0,0,0,0,0,0,2.3868,2.387,2.3873,2.3863,2.3861,2.3861,2.3855,2.3858,2.3854,2.3855,2.3858,2.3857,2.3847,2.3845,2.3851,2.3833,2.384,2.3839,2.3835,2.3833,2.3831,2.3831,2.3859,0,0,0,0,0,2.3865,2.3861,2.3862,2.3853,2.3852,2.3853,2.3851,2.3853,2.3851,2.385,2.3848,2.3845,2.384,2.3836,2.3831,2.3819,2.3818,2.3813,2.3812,2.381,2.3809,2.3802,2.38,2.3824,2.3824,2.3824,0,0,2.3858,2.3858,2.3855,2.385,2.3849,2.3844,2.3852,2.3846,2.3842,2.3848,2.384,2.3839,2.3836,2.3825,2.382,2.3823,2.3802,2.3809,2.3808,2.3807,2.3801,2.3799,2.3797,2.3824,2.3824,2.3824,0,0,2.3842,2.3841,2.3834,2.3833,2.3831,2.3833,2.3831,2.383,2.383,2.3822,2.3826,2.3821,2.3812,2.3809,2.3807,2.3791,2.3794,2.3789,2.378,2.3774,2.3772,2.377,2.3764,2.3762,2.3788,2.3788,2.3788,0,2.3832,2.3825,2.3829,2.3823,2.3821,2.3828,2.382,2.3819,2.3815,2.3813,2.3817,2.3806,2.3804,2.3793,2.3789,2.3787,2.3785,2.3789,2.3772,2.377,2.3769,2.3763,2.3761,2.3787,2.3787,2.3787,2.3787,0,2.3814,2.3809,2.3803,2.3801,2.3798,2.3791,2.3794,2.379,2.3793,2.3794,2.3785,2.3783,2.3778,2.3776,2.3778,2.3765,2.3767,2.3772,2.3778,2.3766,2.376,2.3758,2.3786,2.3787,2.3787,2.3787,0,0,2.379,2.3791,2.3788,2.3788,2.3787,2.3783,2.3776,2.3772,2.3769,2.3767,2.3761,2.3753,2.3757,2.3755,2.3757,2.3751,2.3738,2.3756,2.3756,2.3753,2.3724,2.372,2.3718,2.3741,2.374,2.374,2.3724,0,2.3774,2.3763,2.3767,2.3756,2.3751,2.3757,2.3752,2.375,2.3751,2.3747,2.3747,2.3742,2.3748,2.3746,2.3741,2.3741,2.3732,2.3742,2.3734,2.3734,2.3735,2.3715,2.3711,2.3696,2.3722,2.3721,2.3721,0,2.3753,2.3751,2.3739,2.374,2.3738,2.3733,2.373,2.3726,2.3724,2.3725,2.3723,2.3726,2.3719,2.3727,2.3717,2.3723,2.372,2.372,2.3719,2.3718,2.3726,2.3713,2.3691,2.3688,2.3718,2.3718,2.3719,0,2.3736,2.3731,2.3723,2.3722,2.3723,2.3719,2.3719,2.3718,2.3715,2.3712,2.3711,2.3707,2.3704,2.3701,2.3703,2.3708,2.3692,2.37,2.3692,2.3692,2.3688,2.3688,2.3665,2.3687,2.3687,2.3687,2.3687,0,2.3717,2.371,2.3716,2.3711,2.3703,2.3707,2.3699,2.37,2.3699,2.3694,2.3699,2.3694,2.3698,2.3693,2.3694,2.3686,2.3685,2.3685,2.3685,2.3684,2.3684,2.3681,2.3682,2.3686,2.3687,2.3687,2.3687,0,2.3697,2.3701,2.3693,2.3694,2.3695,2.3688,2.3689,2.3685,2.3686,2.368,2.3679,2.3681,2.3676,2.3678,2.3672,2.3673,2.3662,2.3664,2.3663,2.3663,2.3655,2.3655,2.3629,2.3625,2.365,2.365,2.365,0,2.3685,2.3679,2.368,2.3678,2.3678,2.3674,2.3672,2.3676,2.3673,2.3672,2.3667,2.3663,2.3659,2.3651,2.3651,2.3647,2.3648,2.3639,2.3647,2.3647,2.3648,2.3648,2.3647,2.3637,2.3637,2.3637,2.3637,0,2.3662,2.3664,2.3661,2.3659,2.3656,2.3655,2.3653,2.3651,2.3655,2.3652,2.3647,2.3645,2.3639,2.3634,2.3631,2.363,2.3634,2.3634,2.3632,2.363,2.363,2.363,2.3658,2.3635,2.3635,2.3635,2.3635,2.3635,2.3645,2.364,2.3641,2.3637,2.3637,2.3636,2.3632,2.3633,2.363,2.3626,2.3629,2.3623,2.3622,2.3618,2.3617,2.3612,2.3615,2.3612,2.3611,2.361,2.3609,2.3631,2.3611,2.3611,2.3611,2.3611,2.3611,0,2.3622,2.3623,2.362,2.3618,2.3615,2.3621,2.362,2.3617,2.3612,2.3611,2.3608,2.3603,2.3598,2.3599,2.3595,2.3591,2.3592,2.359,2.3589,2.3589,2.3606,2.3609,2.3588,2.3588,2.3588,2.3588,2.3588,2.3588,2.361,2.3603,2.3605,2.3598,2.3599,2.3594,2.3593,2.3592,2.3591,2.3585,2.3582,2.3583,2.3582,2.3578,2.3574,2.3575,2.3573,2.3569,2.357,2.3586,2.3588,2.359,2.3592,2.3569,2.3569,2.3553,2.3553,2.3553]}]]